User: anonymous   Login
Location: Unspecified
(0.0000°N, 0.0000°E)
Time: 18:57:22
(UTC+00:00)
Language:

SPROUT - Orbit

View from above orbital plane
View from above orbital plane
View from above satellite
View from above satellite

Ground track
Ground track

The orbit data is extracted from the following two-line orbital elements,

1 39770U 14029E   19341.37593860  .00000437  00000-0  54242-4 0  9996
2 39770  97.8913  83.6401 0007945 238.4291 121.6146 14.87529485300356
Epoch (UTC): 07 December 2019 09:01:21
Eccentricity: 0.0007945
inclination: 97.8913°
perigee height: 600 km
apogee height: 611 km
right ascension of ascending node: 83.6401°
argument of perigee: 238.4291°
revolutions per day: 14.87529485
mean anomaly at epoch: 121.6146°
orbit number at epoch: 30035

The dashed part of the orbit path shows where the satellite is in the earth's shadow,  

DLR